Simultaneous Nadir Overpasses (SNOs) Predictions

Prediction of SNOs between METOP-B and TERRA Satellite Orbit:

Table of predicted SNOs for the next 14.0 days since TLE Epoch: 9/16/2017
Index Date (METOP-B) Time (METOP-B) Lat,Lon (METOP-B) SZA (METOP-B ) Date (TERRA) Time (TERRA) Lat,Lon (TERRA) SZA (TERRA ) Distance(km) Time Diff (sec)
1 09/16/2017 06:40:07 81.29, 126.61 81.62 09/16/2017 06:41:17 81.29, 126.54 81.64 1.17 70
2 09/16/2017 07:30:48 -81.29, -65.96 98.36 09/16/2017 07:30:44 -81.28, -65.89 98.36 1.17 4
3 09/19/2017 02:14:29 81.29,-166.88 82.74 09/19/2017 02:15:31 81.29,-167.02 82.76 2.40 62
4 09/19/2017 03:05:10 -81.29, 0.58 97.23 09/19/2017 03:04:58 -81.29, 0.57 97.24 0.55 12
5 09/21/2017 21:48:52 81.29,-100.37 83.87 09/21/2017 21:49:46 81.29,-100.52 83.88 2.51 54
6 09/21/2017 22:39:33 -81.29, 67.09 96.10 09/21/2017 22:39:13 -81.29, 67.08 96.12 0.33 20
7 09/24/2017 17:23:16 81.28, -34.28 84.95 09/24/2017 17:24:02 81.28, -34.35 84.96 1.52 46
8 09/24/2017 18:13:56 -81.29, 133.59 94.98 09/24/2017 18:13:28 -81.30, 133.64 94.98 0.95 28
9 09/27/2017 12:57:39 81.29, 32.19 86.07 09/27/2017 12:58:17 81.29, 32.24 86.10 0.93 38




NCC Satellite Simultaneous Nadir Overpasses (SNOs) Prediction Service
